Theta_e
305 306 307 307 308 310 311 313 314 312 313 312 313 311 310 310 308 307 307 307 307 305 304 304 302 301 301 301 301 304 305 303 302 300 299 298 298 298 297 296 296 296 295 295
307 307 307 307 308 310 310 311 311 311 314 311 312 312 311 311 311 307 306 307 306 305 303 300 300 300 299 300 301 301 304 302 301 299 299 298 298 298 297 296 295 295 294 294
310 308 307 309 309 310 311 311 311 311 312 309 309 310 310 309 310 311 308 307 306 305 303 300 299 299 300 300 301 302 303 301 300 299 298 298 298 297 297 295 294 294 293 292
311 310 310 309 311 310 313 312 312 312 313 317 310 318 314 313 311 311 311 307 307 306 304 300 299 299 300 300 300 301 301 300 299 298 298 297 296 295 295 295 294 293 292 292
311 310 311 312 312 311 313 312 312 312 313 315 316 315 315 313 314 314 311 310 307 306 304 301 299 299 299 299 300 300 299 298 298 297 296 295 296 296 295 294 294 292 292 291
309 311 310 312 311 311 311 312 311 311 314 315 314 316 315 313 313 313 312 311 309 305 302 300 299 299 299 298 298 298 297 297 296 295 295 295 295 294 294 293 292 292 291 291
309 309 309 310 311 307 310 312 314 313 313 313 311 315 314 311 312 312 313 308 306 302 301 299 298 297 297 297 297 296 296 295 294 293 293 293 293 293 293 292 292 292 291 290
307 307 309 309 311 310 310 310 313 317 315 311 311 315 313 309 309 304 301 300 301 301 300 298 297 296 295 296 296 295 294 294 293 292 292 292 292 291 291 291 291 290 290 290
309 310 307 308 309 310 310 312 310 316 307 314 308 310 307 304 301 298 300 300 300 299 298 297 296 295 295 295 294 294 293 293 292 292 291 291 291 290 290 290 289 289 289 288
307 308 308 307 308 306 311 309 311 313 316 318 313 310 312 306 302 299 299 299 299 298 297 296 295 294 294 294 294 293 293 292 292 291 291 290 290 289 289 289 288 288 287 287
307 310 310 308 309 309 308 312 312 313 315 319 320 312 310 309 302 300 298 299 298 297 296 293 292 290 290 290 290 290 290 290 290 289 289 288 288 288 287 287 286 285 285 284
306 307 311 306 303 302 305 310 311 313 316 314 313 312 293 294 293 298 299 298 297 296 293 291 288 286 286 286 286 286 286 286 286 286 286 286 286 286 286 285 285 284 283 283
306 308 308 306 305 304 306 309 310 310 312 315 315 312 292 292 293 297 297 296 296 294 292 290 288 287 286 285 284 284 284 284 284 284 284 284 284 284 284 284 283 283 283 283
303 307 307 309 309 304 306 307 308 311 314 314 313 310 297 293 292 296 297 295 293 293 291 289 288 287 285 284 283 283 283 283 282 282 283 282 283 283 283 283 282 282 282 282
304 306 305 301 299 303 304 306 308 309 311 313 303 302 302 296 291 290 294 294 293 292 290 289 287 285 283 282 282 281 281 281 281 281 281 281 282 281 281 281 282 281 281 281
304 306 302 302 300 300 302 303 307 308 308 309 309 306 295 288 289 291 294 293 293 292 290 288 287 284 282 282 281 281 281 280 281 280 280 280 281 281 281 281 281 280 281 281
305 305 304 307 300 302 299 296 303 306 307 307 309 306 297 296 295 290 292 293 293 292 289 287 287 284 283 282 281 280 280 280 280 280 280 280 279 279 280 280 280 280 280 280
302 304 306 301 298 304 296 288 290 299 302 302 303 305 303 302 298 297 293 294 292 291 289 287 285 284 282 281 280 280 280 280 280 279 279 279 278 278 278 278 279 279 279 280
299 304 305 303 300 301 298 290 293 298 298 294 292 294 298 294 295 296 293 292 294 289 287 285 283 282 280 279 279 279 279 279 279 278 278 277 277 277 277 277 278 278 278 279
300 301 304 299 301 303 295 291 291 291 301 291 288 288 292 293 300 298 287 288 285 284 282 280 280 279 278 278 279 279 279 278 278 277 276 276 276 276 276 276 277 277 277 278
301 302 303 300 305 299 292 291 291 300 295 286 287 286 287 293 289 287 284 283 282 281 279 279 279 278 277 277 278 278 278 277 276 275 275 275 275 275 276 276 276 276 276 277
299 299 301 301 303 300 291 293 297 290 288 285 285 284 286 285 287 284 282 281 280 280 280 279 279 278 277 277 278 278 277 275 275 275 274 275 275 275 275 275 275 276 276 276
299 296 297 298 299 294 290 290 288 285 287 288 287 284 286 286 286 284 282 281 281 281 280 280 279 277 276 276 276 276 275 275 274 274 274 274 274 274 275 275 275 275 277 277
293 292 296 297 295 293 290 290 288 287 288 288 287 287 287 287 285 284 283 282 281 280 278 278 278 276 275 275 275 275 274 274 274 274 274 274 274 274 274 274 275 275 276 277
291 292 293 296 293 293 291 290 288 288 286 287 286 285 287 287 285 283 282 281 280 279 277 277 277 276 276 275 274 274 274 274 274 273 273 274 274 274 274 274 274 274 275 275
290 289 291 294 289 289 291 288 286 287 287 286 286 285 284 285 284 282 281 280 279 277 276 276 276 275 275 274 274 274 274 274 273 273 274 274 273 273 273 273 273 274 275 275
Wind_Speed
14 10 16 25 23 16 16 14 15 12 12 7 21 19 15 17 7 8 8 9 11 11 10 24 24 18 16 18 20 22 26 26 27 25 23 19 18 17 15 12 11 11 8 8
8 19 28 22 18 18 17 15 22 17 9 10 6 16 14 16 14 14 13 13 10 9 9 10 19 19 19 21 22 24 26 28 28 26 23 16 17 14 12 13 13 10 9 9
19 17 19 15 18 19 20 22 22 20 10 2 4 15 12 10 12 12 17 14 12 14 13 12 12 19 19 20 23 26 28 28 25 22 20 16 18 14 15 13 11 10 10 10
15 25 17 18 23 22 22 22 21 21 11 13 6 20 19 16 21 23 23 19 18 15 13 13 12 15 20 19 21 23 25 26 24 22 23 22 20 12 14 12 9 9 10 10
13 20 22 23 20 23 19 12 18 18 13 6 8 6 17 11 21 20 23 22 17 16 14 16 14 19 19 20 21 22 24 24 23 22 21 18 16 12 10 12 11 9 9 10
14 7 6 20 22 17 11 3 3 2 7 12 20 12 29 15 22 9 9 23 19 13 14 15 20 25 22 21 21 22 23 23 21 20 18 17 15 12 11 10 9 9 9 10
23 20 7 6 11 4 4 8 5 5 6 10 14 13 24 9 23 23 19 15 12 11 15 15 16 14 21 23 23 23 23 21 20 19 18 17 15 13 11 10 9 9 10 11
15 16 18 12 17 11 16 18 8 8 6 6 14 9 12 9 18 9 1 4 10 12 12 14 15 14 19 25 23 21 22 20 19 17 15 13 12 12 11 11 10 10 10 11
9 13 6 15 13 17 7 14 18 4 1 4 5 5 11 8 4 2 1 9 12 12 11 12 12 13 20 23 22 20 19 17 17 15 14 13 12 12 11 11 11 13 12 12
3 10 8 5 7 3 9 8 6 8 8 6 5 4 8 4 8 8 7 9 11 10 11 10 9 12 19 19 19 17 16 16 15 13 12 12 12 12 14 16 16 14 14 15
3 5 2 13 10 14 4 7 5 5 6 5 3 5 3 5 3 10 9 9 13 13 11 9 8 15 19 18 17 14 12 13 14 13 12 12 13 13 14 14 15 15 14 15
6 4 3 3 2 1 4 9 14 5 5 5 1 5 1 1 3 1 9 9 11 11 12 10 9 12 14 14 12 11 10 9 9 10 11 12 13 14 14 14 14 13 13 12
1 3 2 3 1 1 4 7 7 10 2 8 6 4 1 1 4 1 7 7 11 13 13 11 10 8 11 15 14 11 9 8 6 6 8 11 11 11 13 14 12 12 12 11
4 3 6 6 1 1 5 8 8 13 7 6 8 3 4 3 3 0 6 8 10 11 11 11 9 7 11 14 13 11 9 6 4 4 4 5 7 9 12 11 11 12 11 12
3 4 5 3 3 1 2 4 11 13 12 7 3 3 2 2 5 5 6 9 10 9 9 8 9 8 10 12 11 9 7 5 4 4 3 3 3 7 11 11 12 12 13 12
3 3 0 3 1 2 4 7 8 12 16 12 10 6 4 3 4 3 6 10 10 9 6 6 7 8 7 13 11 8 7 5 3 2 1 1 2 4 6 7 9 11 11 12
4 2 3 2 1 4 5 5 10 4 5 4 12 5 3 2 4 5 5 6 9 10 9 7 7 6 10 12 12 10 6 4 3 2 2 1 2 3 4 4 5 6 8 11
4 1 2 1 1 3 3 3 3 2 6 7 6 4 1 3 2 2 2 7 7 8 9 8 7 10 12 12 10 8 6 4 4 2 1 1 3 5 5 5 6 7 7 8
4 2 2 2 3 2 2 5 3 2 4 4 5 6 4 2 2 3 3 1 7 6 7 8 14 14 14 10 9 7 7 5 4 2 1 3 4 5 6 6 6 5 6 7
2 2 2 1 3 0 3 4 2 3 2 2 2 4 5 1 2 2 3 3 9 10 13 14 16 16 14 10 9 7 7 5 5 2 1 3 4 6 6 6 7 6 6 7
1 0 2 2 0 3 2 6 2 2 4 5 3 4 4 2 2 3 7 7 5 9 14 16 14 12 12 9 9 7 6 5 2 0 1 2 3 4 5 6 7 8 6 6
3 3 2 2 2 2 3 4 4 3 3 3 3 3 2 2 4 6 7 6 6 7 9 12 12 11 9 8 7 6 5 2 1 2 2 2 2 3 3 6 6 5 5 6
2 3 3 4 3 3 3 1 2 1 2 3 3 1 2 3 3 4 5 5 6 6 7 9 12 13 9 7 7 7 4 1 1 3 4 4 5 5 5 5 4 5 3 4
2 3 2 2 4 3 3 1 2 2 3 5 4 1 1 2 5 5 5 6 5 6 5 8 10 9 7 6 5 5 3 0 2 2 3 3 5 6 5 7 4 6 3 4
2 5 5 1 4 2 5 8 8 8 4 5 4 4 2 2 3 5 4 5 5 7 9 10 10 9 7 4 3 1 1 1 2 3 4 4 3 5 7 6 9 9 7 6
5 4 4 2 5 4 4 8 10 9 9 8 5 3 2 2 4 4 5 5 6 7 9 8 7 7 5 2 2 3 4 4 4 2 2 3 6 5 6 7 10 6 10 10
Wind_Direction
197 193 206 215 220 233 254 260 247 230 238 191 222 229 225 248 223 239 236 228 209 199 181 175 177 190 192 193 195 196 187 186 184 183 179 180 187 191 191 197 206 217 219 239
192 213 222 218 219 226 241 255 261 277 287 203 246 248 239 241 243 205 212 222 215 192 156 151 162 183 200 200 197 198 192 181 183 188 187 184 190 200 204 211 222 224 224 241
208 215 226 218 225 232 225 229 242 252 272 283 348 275 247 246 257 249 215 214 207 196 181 166 166 184 193 193 193 191 183 179 180 184 181 176 174 172 181 190 215 228 233 236
215 233 224 209 220 221 238 225 237 242 248 250 176 268 257 249 229 227 230 210 211 197 184 164 165 177 186 184 184 178 176 175 177 180 185 183 183 179 210 217 213 208 225 236
215 219 221 225 221 218 238 222 227 245 241 242 219 248 260 206 239 234 223 225 208 200 180 171 165 164 174 172 169 170 169 172 178 182 187 187 191 192 163 182 195 209 231 251
248 263 265 222 233 236 234 202 27 290 230 230 222 206 267 235 242 247 249 208 208 181 159 157 152 155 154 159 162 162 165 169 176 183 182 189 192 190 190 198 208 222 234 238
233 235 221 257 233 35 130 147 206 215 208 237 205 208 240 227 234 243 250 207 187 155 154 150 150 148 148 160 162 164 168 170 180 185 193 195 195 200 204 202 207 217 220 220
222 244 201 191 219 192 190 193 209 227 209 228 161 206 235 231 232 248 266 175 144 153 154 151 150 155 156 162 165 164 170 173 181 186 192 201 204 208 216 218 215 218 225 230
216 227 133 189 192 176 183 217 222 273 190 252 179 268 304 212 190 142 142 154 158 152 152 143 141 151 154 161 165 167 172 174 183 188 195 204 214 213 207 213 214 220 222 231
298 266 205 177 196 298 208 155 196 211 231 239 197 262 227 243 206 156 167 166 158 143 135 132 131 131 146 147 146 154 165 170 173 185 198 206 216 222 218 219 223 227 229 233
353 236 333 135 198 187 163 194 206 229 212 238 196 231 228 243 221 181 167 174 160 146 138 127 117 112 124 127 140 153 170 179 189 194 196 205 211 219 231 235 237 238 240 240
199 302 251 201 49 4 319 233 196 201 177 231 38 268 294 330 315 230 170 166 152 134 129 123 111 117 130 136 142 155 166 175 188 201 205 209 220 222 234 242 241 241 240 238
198 256 214 171 55 150 230 210 235 229 81 206 204 253 177 14 349 7 156 132 128 127 121 121 126 139 144 144 145 144 147 159 175 197 215 220 224 232 240 241 241 241 241 237
300 222 226 274 47 103 189 209 211 226 226 200 207 223 334 303 173 201 112 115 127 137 138 136 140 142 145 147 146 146 148 162 172 193 211 225 229 233 238 239 239 240 242 240
220 260 201 240 217 267 303 236 218 225 244 215 258 229 82 214 194 180 140 130 134 141 146 152 147 142 140 142 143 148 156 165 184 214 219 237 249 242 240 236 236 240 240 243
211 270 238 262 175 263 266 236 246 229 237 262 265 272 182 218 64 99 166 153 152 154 146 147 141 139 140 153 158 158 168 175 182 192 189 287 275 260 257 251 248 249 251 250
263 227 202 219 291 221 279 239 223 226 229 251 237 268 152 101 143 170 179 185 167 158 153 151 143 138 145 157 167 169 165 154 133 98 63 23 286 282 292 288 263 261 265 268
287 261 252 141 265 234 262 235 227 269 55 4 339 319 147 120 71 66 164 168 162 156 149 140 134 121 145 156 144 135 134 116 98 92 92 280 284 285 282 279 276 274 267 260
234 241 249 219 201 209 87 349 356 40 42 7 309 330 316 30 198 187 186 330 157 142 129 120 125 140 146 143 141 129 119 116 113 91 356 312 316 313 312 304 296 287 279 267
230 250 260 115 258 47 311 317 259 6 71 340 302 315 333 196 210 100 87 43 86 100 116 123 134 141 141 139 130 134 133 129 126 159 270 321 329 321 312 318 315 309 289 283
292 108 312 252 213 93 282 302 349 7 287 334 337 302 309 284 348 81 82 72 75 109 118 131 136 130 133 129 133 139 138 134 160 249 317 320 302 304 319 307 296 299 301 297
359 327 30 290 14 65 350 316 66 238 287 240 311 338 353 74 101 82 84 86 94 111 122 126 118 121 126 131 135 137 124 89 355 337 329 303 312 322 286 299 318 315 316 312
52 13 354 13 58 298 336 68 281 247 262 341 346 240 109 99 98 116 117 122 134 132 128 132 132 131 139 136 133 127 136 176 333 357 355 353 341 332 328 316 317 314 322 295
74 10 349 220 22 27 21 56 344 266 293 349 3 40 238 90 135 128 136 131 124 116 121 138 138 133 133 135 131 132 146 193 345 4 358 352 343 325 337 310 302 293 299 292
357 328 326 60 34 329 82 44 11 348 335 341 14 359 322 99 158 136 126 128 133 142 153 155 148 143 141 147 143 161 217 272 322 346 343 354 334 316 327 319 307 294 263 247
355 360 7 351 37 317 317 21 13 360 4 347 348 356 22 10 148 121 133 135 142 153 158 136 129 129 144 176 223 258 263 267 273 305 352 295 294 295 297 306 304 282 278 259